Location: Unspecified
(0.0000°N, 0.0000°E)
Time: 19:11:06
(UTC+00:00)

A-11 Canister half - Pass Details

Date: 26 November 2019
Orbit: 1515 x 1685 km, 47.2° (Epoch: 05 December)

Event Time Altitude Azimuth Distance (km) Brightness Sun altitude
Exits shadow 02:34:31 23° 196° (SSW) 2,881 10.4 -44.1°
Drops below altitude 10° 02:38:41 10° 173° (S) 3,738 11.3 -43.2°
Sets 02:42:19 0° 161° (SSE) 4,701 12.1 -42.4°
